• In Uzbekistan
  • List of Countries
  • For 7 days
  • Water Temperature
  • Weather Map
  • Weather Widgets
  • user-avatar
    Login

    Hourly Weather Kherson

    Today, 18 November, Monday

    Time Temperature Precipitation Wind Pressure Humidity
    00:00 +4°C° 0 mm 3 mps 766 mmHg 90%
    01:00 +4°C° 0 mm 3 mps 766 mmHg 91%
    02:00 +3°C° 0 mm 3 mps 766 mmHg 92%
    03:00 +3°C° 0 mm 3 mps 765 mmHg 93%
    04:00 +4°C° 0 mm 2 mps 765 mmHg 93%
    05:00 +4°C° 0 mm 2 mps 765 mmHg 93%
    06:00 +4°C° 0 mm 2 mps 765 mmHg 93%
    07:00 +5°C° 0 mm 2 mps 765 mmHg 92%
    08:00 +6°C° 0 mm 2 mps 766 mmHg 91%
    09:00 +7°C° 0 mm 2 mps 766 mmHg 85%
    10:00 +9°C° 0 mm 2 mps 766 mmHg 78%
    11:00 +10°C° 0 mm 2 mps 766 mmHg 72%
    12:00 +12°C° 0 mm 2 mps 765 mmHg 68%
    13:00 +13°C° 0 mm 2 mps 765 mmHg 65%
    14:00 +13°C° 0 mm 1 mps 765 mmHg 68%
    15:00 +12°C° 0 mm 1 mps 766 mmHg 72%
    16:00 +11°C° 0 mm 1 mps 766 mmHg 76%
    17:00 +10°C° 0 mm 1 mps 766 mmHg 80%
    18:00 +10°C° 0 mm 1 mps 766 mmHg 82%
    19:00 +8°C° 0 mm 2 mps 766 mmHg 84%
    20:00 +7°C° 0 mm 2 mps 766 mmHg 86%
    21:00 +7°C° 0 mm 2 mps 766 mmHg 87%
    22:00 +8°C° 0 mm 1 mps 766 mmHg 89%
    23:00 +7°C° 0 mm 1 mps 767 mmHg 90%

    Tomorrow, 19 November, Tuesday

    Time Temperature Precipitation Wind Pressure Humidity
    00:00 +7°C° 0 mm 1 mps 767 mmHg 91%
    01:00 +7°C° 0 mm 1 mps 767 mmHg 91%
    02:00 +6°C° 0 mm 1 mps 767 mmHg 91%
    03:00 +6°C° 0 mm 1 mps 767 mmHg 92%
    04:00 +6°C° 0 mm 1 mps 767 mmHg 92%
    05:00 +5°C° 0 mm 2 mps 767 mmHg 92%
    06:00 +5°C° 0 mm 2 mps 767 mmHg 91%
    07:00 +5°C° 0 mm 2 mps 767 mmHg 90%
    08:00 +5°C° 0 mm 2 mps 767 mmHg 89%
    09:00 +7°C° 0 mm 2 mps 767 mmHg 82%
    10:00 +8°C° 0 mm 2 mps 767 mmHg 74%
    11:00 +10°C° 0 mm 2 mps 768 mmHg 66%
    12:00 +12°C° 0 mm 2 mps 767 mmHg 63%
    13:00 +12°C° 0 mm 2 mps 767 mmHg 60%
    14:00 +13°C° 0 mm 2 mps 767 mmHg 56%
    15:00 +12°C° 0 mm 2 mps 767 mmHg 60%
    16:00 +10°C° 0 mm 2 mps 767 mmHg 63%
    17:00 +9°C° 0 mm 2 mps 767 mmHg 67%
    18:00 +9°C° 0 mm 2 mps 767 mmHg 68%
    19:00 +8°C° 0 mm 2 mps 767 mmHg 70%
    20:00 +8°C° 0 mm 2 mps 767 mmHg 71%
    21:00 +7°C° 0 mm 2 mps 767 mmHg 72%
    22:00 +7°C° 0 mm 2 mps 767 mmHg 72%
    23:00 +7°C° 0 mm 2 mps 767 mmHg 73%

    Day after tomorrow, 20 November, Wednesday

    Time Temperature Precipitation Wind Pressure Humidity
    00:00 +6°C° 0 mm 2 mps 767 mmHg 74%
    01:00 +6°C° 0 mm 2 mps 767 mmHg 74%
    02:00 +6°C° 0 mm 2 mps 767 mmHg 75%
    03:00 +6°C° 0 mm 2 mps 767 mmHg 77%
    04:00 +4°C° 0 mm 3 mps 767 mmHg 79%
    05:00 +4°C° 0 mm 3 mps 767 mmHg 80%
    06:00 +4°C° 0 mm 3 mps 767 mmHg 80%
    07:00 +4°C° 0 mm 3 mps 767 mmHg 80%
    08:00 +4°C° 0 mm 3 mps 767 mmHg 80%
    09:00 +7°C° 0 mm 3 mps 767 mmHg 74%
    10:00 +7°C° 0 mm 4 mps 767 mmHg 67%
    11:00 +10°C° 0 mm 4 mps 766 mmHg 61%
    12:00 +10°C° 0 mm 4 mps 766 mmHg 58%
    13:00 +11°C° 0 mm 4 mps 766 mmHg 56%
    14:00 +11°C° 0 mm 4 mps 766 mmHg 54%
    15:00 +10°C° 0 mm 4 mps 766 mmHg 59%
    16:00 +8°C° 0 mm 4 mps 766 mmHg 64%
    17:00 +7°C° 0 mm 4 mps 766 mmHg 69%
    18:00 +7°C° 0 mm 5 mps 766 mmHg 72%
    19:00 +6°C° 0 mm 5 mps 766 mmHg 74%
    20:00 +6°C° 0 mm 5 mps 767 mmHg 77%
    21:00 +6°C° 0 mm 5 mps 767 mmHg 76%
    22:00 +4°C° 0 mm 6 mps 767 mmHg 76%
    23:00 +4°C° 0 mm 6 mps 767 mmHg 75%

    21 November, Thursday

    Time Temperature Precipitation Wind Pressure Humidity
    00:00 +4°C° 0 mm 6 mps 767 mmHg 72%
    01:00 +4°C° 0 mm 6 mps 767 mmHg 69%
    02:00 +4°C° 0 mm 6 mps 767 mmHg 66%
    03:00 +4°C° 0 mm 7 mps 767 mmHg 69%
    04:00 +4°C° 0 mm 7 mps 767 mmHg 72%
    05:00 +2°C° 0 mm 8 mps 767 mmHg 75%
    06:00 +4°C° 0 mm 8 mps 768 mmHg 72%
    07:00 +4°C° 0 mm 8 mps 768 mmHg 70%
    08:00 +3°C° 0 mm 9 mps 768 mmHg 68%
    09:00 +3°C° 0 mm 9 mps 769 mmHg 66%
    10:00 +2°C° 0 mm 9 mps 769 mmHg 64%
    11:00 +2°C° 0 mm 9 mps 769 mmHg 63%
    12:00 +2°C° 0 mm 9 mps 769 mmHg 61%
    13:00 +2°C° 0 mm 9 mps 769 mmHg 59%
    14:00 +2°C° 0 mm 9 mps 769 mmHg 58%
    15:00 +1°C° 0 mm 9 mps 769 mmHg 58%
    16:00 0°C° 0 mm 9 mps 769 mmHg 58%
    17:00 -1°C° 0 mm 8 mps 769 mmHg 58%
    18:00 -1°C° 0 mm 8 mps 770 mmHg 57%
    19:00 -2°C° 0 mm 8 mps 770 mmHg 56%
    20:00 -4°C° 0 mm 8 mps 770 mmHg 56%
    21:00 -4°C° 0 mm 8 mps 770 mmHg 58%
    22:00 -4°C° 0 mm 8 mps 770 mmHg 61%
    23:00 -5°C° 0 mm 8 mps 770 mmHg 63%

    22 November, Friday

    Time Temperature Precipitation Wind Pressure Humidity
    00:00 -5°C° 0 mm 8 mps 770 mmHg 65%
    01:00 -5°C° 0 mm 8 mps 770 mmHg 66%
    02:00 -5°C° 0 mm 8 mps 770 mmHg 68%
    03:00 -6°C° 0 mm 8 mps 770 mmHg 68%
    04:00 -6°C° 0 mm 8 mps 770 mmHg 68%
    05:00 -6°C° 0 mm 8 mps 770 mmHg 68%
    06:00 -6°C° 0 mm 8 mps 770 mmHg 68%
    07:00 -6°C° 0 mm 8 mps 770 mmHg 67%
    08:00 -6°C° 0 mm 8 mps 770 mmHg 66%
    09:00 -5°C° 0 mm 8 mps 770 mmHg 66%
    10:00 -4°C° 0 mm 8 mps 770 mmHg 67%
    11:00 -2°C° 0 mm 8 mps 769 mmHg 67%
    12:00 -2°C° 0 mm 8 mps 769 mmHg 67%
    13:00 -1°C° 0 mm 8 mps 769 mmHg 67%
    14:00 -1°C° 0 mm 8 mps 768 mmHg 67%
    15:00 -1°C° 0 mm 8 mps 768 mmHg 67%
    16:00 0°C° 0 mm 8 mps 768 mmHg 68%
    17:00 0°C° 0 mm 8 mps 768 mmHg 69%
    18:00 0°C° 0 mm 8 mps 768 mmHg 68%
    19:00 0°C° 0 mm 7 mps 768 mmHg 68%
    20:00 0°C° 0 mm 7 mps 767 mmHg 68%
    21:00 0°C° 0 mm 7 mps 767 mmHg 69%
    22:00 0°C° 0 mm 7 mps 767 mmHg 69%
    23:00 +2°C° 0 mm 7 mps 767 mmHg 70%

    23 November, Saturday

    Time Temperature Precipitation Wind Pressure Humidity
    00:00 0°C° 0 mm 7 mps 767 mmHg 71%
    01:00 0°C° 0 mm 7 mps 767 mmHg 72%
    02:00 0°C° 0 mm 7 mps 767 mmHg 73%
    03:00 0°C° 0 mm 7 mps 767 mmHg 74%
    04:00 0°C° 0 mm 7 mps 767 mmHg 75%
    05:00 0°C° 0 mm 7 mps 767 mmHg 75%
    06:00 0°C° 0 mm 7 mps 767 mmHg 75%
    07:00 +1°C° 0 mm 6 mps 767 mmHg 75%
    08:00 +1°C° 0 mm 6 mps 767 mmHg 75%
    09:00 +1°C° 0 mm 6 mps 767 mmHg 73%
    10:00 +1°C° 0 mm 6 mps 767 mmHg 71%
    11:00 +2°C° 0 mm 6 mps 767 mmHg 68%
    12:00 +2°C° 0 mm 5 mps 767 mmHg 67%
    13:00 +2°C° 0 mm 5 mps 766 mmHg 66%
    14:00 +3°C° 0 mm 5 mps 766 mmHg 65%
    15:00 +2°C° 0 mm 5 mps 766 mmHg 66%
    16:00 +2°C° 0 mm 5 mps 766 mmHg 68%
    17:00 +2°C° 0 mm 5 mps 766 mmHg 69%
    18:00 +2°C° 0 mm 5 mps 766 mmHg 70%
    19:00 +1°C° 0 mm 4 mps 766 mmHg 70%
    20:00 +1°C° 0 mm 4 mps 766 mmHg 71%
    21:00 +1°C° 0 mm 4 mps 766 mmHg 71%
    22:00 0°C° 0 mm 4 mps 766 mmHg 71%
    23:00 0°C° 0 mm 4 mps 765 mmHg 71%
    Show more